Location: Geremba
(10.4250°N, 67.2394°W)
Time: 22:27:39
(UTC+00:00)

CZ-4B R/B - Pass Details

Date: 23 May 2024
Orbit: 808 x 881 km, 99.0° (Epoch: 25 June)

Event Time Altitude Azimuth Distance (km) Brightness Sun altitude
Exits shadow 00:53:19 68° 242° (WSW) 896 3.3 -29.3°
Maximum altitude 00:53:30 68° 257° (WSW) 892 3.3 -29.3°
Drops below altitude 10° 00:58:50 10° 340° (NNW) 2,415 6.1 -30.4°
Sets 01:01:10 0° 343° (NNW) 3,338 7.0 -30.9°
